Wind_Speed
8 8 8 8 8 8 9 9 9 9 9 9 10 9 9 9 9 10 11 11 12 12 13 12 12 12 12 12 11 11 10 10 11 10 10 10 10 10 9 10 10 11 10
9 10 10 9 10 10 10 10 10 9 9 10 10 9 9 9 10 11 12 12 12 12 12 13 14 14 14 13 13 12 12 12 11 11 11 11 11 11 11 10 10 10 11
10 10 10 10 10 11 10 10 10 10 10 10 10 10 9 10 10 11 11 11 12 12 13 13 14 14 14 14 14 14 13 14 13 13 13 13 12 12 12 12 12 12 12
11 12 11 11 11 11 11 11 11 11 11 10 10 10 10 11 11 11 12 12 12 13 13 14 14 14 14 15 15 15 15 15 15 15 14 15 14 14 14 14 14 14 14
12 12 12 12 12 12 12 12 12 12 11 11 11 11 11 11 12 13 13 14 14 14 14 14 15 15 14 15 16 16 16 16 16 16 16 16 16 16 16 16 16 16 16
12 13 13 13 13 13 12 13 13 12 12 12 12 12 12 13 13 14 14 14 14 14 15 15 15 15 15 15 15 16 16 17 17 17 17 17 18 18 18 17 17 17 17
12 12 13 13 13 13 13 13 13 13 13 13 13 13 13 14 14 15 15 15 15 15 15 15 16 15 16 15 15 16 16 17 17 18 18 18 18 19 18 18 18 18 18
12 13 12 12 12 13 13 14 14 14 14 14 14 15 15 16 16 15 15 15 15 15 15 15 16 16 16 16 15 16 17 18 18 18 19 19 19 19 19 19 19 18 18
13 13 13 13 12 13 14 15 15 15 15 15 15 16 16 17 17 16 16 16 15 16 16 16 16 17 17 17 17 17 18 18 18 19 19 19 19 19 19 19 20 20 19
13 13 13 12 13 14 15 16 15 15 15 15 15 15 16 16 17 17 17 17 17 17 17 17 17 17 18 17 17 17 17 18 19 20 21 20 20 20 20 21 21 21 20
13 13 13 13 13 14 15 15 15 15 16 16 16 16 17 16 17 17 17 17 18 18 18 18 17 17 18 17 17 17 18 19 19 20 20 20 20 20 21 21 21 21 21
15 14 15 15 14 14 15 15 16 16 16 16 17 17 17 17 17 18 18 18 19 19 19 18 18 18 18 18 17 17 17 18 18 19 20 21 21 21 21 21 22 21 22
16 15 15 15 15 15 15 16 16 17 17 17 18 18 18 18 18 19 19 18 19 19 19 19 18 19 19 19 18 18 17 17 17 19 20 20 21 21 20 20 21 21 22
16 16 16 16 16 16 16 16 16 17 17 17 18 18 18 18 18 19 19 18 18 18 18 19 19 19 20 20 19 18 18 18 18 19 20 20 20 21 21 21 22 22 22
17 18 18 18 17 17 17 17 16 17 17 17 18 18 18 17 17 18 18 18 18 18 18 18 19 20 20 20 20 19 19 19 19 20 20 21 22 23 23 22 22 23 24
18 18 18 18 18 18 18 18 17 18 18 18 19 19 18 17 16 17 17 18 18 18 18 18 19 20 21 21 20 21 20 20 20 20 21 22 23 23 24 24 24 24 25
19 19 19 19 18 18 19 18 18 18 19 19 19 19 18 18 18 17 17 18 18 18 18 19 19 20 20 20 21 22 22 22 21 21 21 22 22 24 25 25 26 26 26
19 19 20 20 19 19 19 19 19 19 19 18 18 18 18 18 18 18 18 18 19 19 19 19 19 19 20 20 21 21 22 22 23 22 22 22 23 23 24 25 26 27 27
19 19 19 20 19 20 20 20 20 19 19 18 18 18 18 18 18 18 19 19 19 19 19 19 20 20 20 21 21 22 22 23 23 23 23 23 24 24 25 25 26 26 27
18 19 20 20 20 20 20 20 19 19 19 18 18 18 18 19 19 19 19 19 19 19 19 19 19 20 21 22 22 23 23 24 24 24 24 25 25 25 26 26 27 27 26
19 19 20 20 20 21 20 20 19 19 18 18 18 18 19 19 19 19 20 20 20 20 20 20 20 21 22 23 23 23 23 24 24 24 25 26 26 26 26 27 26 26 26
19 20 20 20 20 20 19 19 19 19 19 19 18 18 19 20 21 20 20 20 20 20 20 20 21 21 22 22 22 22 23 24 25 25 26 26 26 26 26 26 26 26 26
18 19 19 19 19 19 19 19 19 18 18 18 18 19 19 20 20 21 21 21 21 20 20 20 20 20 21 22 22 23 24 24 24 25 26 26 27 26 26 26 26 26 26
18 18 19 19 19 19 20 20 19 19 19 19 20 20 21 21 21 22 22 21 21 20 21 21 21 21 21 22 22 23 23 23 23 24 25 25 25 26 26 26 27 27 27
19 19 19 20 20 20 20 20 21 21 20 20 21 22 22 21 21 22 22 21 21 21 21 22 22 22 22 23 23 23 23 24 24 23 24 25 25 26 27 27 27 28 28
19 19 19 20 20 20 20 20 21 20 20 20 21 22 22 21 21 21 21 21 22 22 23 23 23 23 23 23 23 23 24 24 24 24 25 25 26 27 27 27 28 28 29
Wind_Direction
289 290 287 291 287 283 280 278 281 284 288 286 288 283 268 261 256 253 251 248 248 253 252 252 253 251 249 254 254 255 256 253 251 254 256 258 259 260 261 258 252 248 249
287 288 286 290 283 279 277 275 276 280 282 280 282 285 273 263 259 255 253 252 252 255 256 254 254 256 253 252 252 254 257 257 256 257 257 258 259 259 265 262 256 254 255
285 284 283 285 281 278 279 277 272 273 276 277 280 284 272 261 256 252 252 253 256 258 259 259 258 257 254 252 253 252 254 255 256 258 258 261 261 260 262 259 257 259 263
281 278 278 278 278 279 277 275 273 273 274 275 280 280 270 259 258 256 255 256 256 258 260 261 260 259 257 255 255 250 252 255 254 255 257 259 261 262 261 258 256 258 262
278 275 273 275 274 273 274 273 273 274 275 276 280 279 270 261 260 262 262 259 258 258 258 260 260 259 259 257 254 250 252 253 254 255 256 258 260 261 261 260 260 258 260
280 280 275 273 273 273 274 271 271 270 270 275 277 276 272 265 263 265 265 263 263 262 259 259 258 259 257 256 254 251 254 253 254 255 256 258 259 260 260 261 261 259 260
281 281 276 274 275 274 273 272 270 270 270 273 273 272 271 269 267 266 265 265 264 263 263 260 259 260 254 254 254 256 256 255 256 256 257 258 259 259 261 262 262 260 259
282 281 280 276 278 278 273 271 273 270 269 272 273 270 270 272 272 269 266 264 265 264 263 262 262 260 257 254 254 257 257 257 257 257 257 259 259 259 260 261 261 260 259
281 278 278 277 279 280 276 271 270 268 270 271 270 269 270 272 268 265 264 263 264 263 262 263 262 260 259 257 258 258 258 256 256 256 258 260 260 260 262 262 262 260 259
281 276 280 279 279 278 275 269 268 269 271 269 269 270 272 272 268 263 263 263 263 262 260 261 261 262 261 262 260 259 257 256 256 256 257 258 260 261 261 261 261 260 260
280 279 279 279 278 276 275 269 269 270 270 270 270 271 272 273 266 262 263 264 264 262 259 259 259 258 259 260 263 262 259 257 257 258 258 258 259 262 263 261 261 259 259
275 277 277 279 276 274 274 272 270 270 270 271 272 273 272 270 267 266 264 263 263 262 261 258 258 259 259 261 264 265 262 258 259 258 258 258 261 263 263 261 260 259 259
274 274 275 276 273 271 272 272 271 272 273 271 272 274 273 271 269 268 265 263 263 261 260 259 258 258 260 262 261 264 266 263 259 260 261 260 261 261 262 262 261 260 259
273 274 274 274 273 272 271 272 272 273 272 271 271 272 272 271 270 269 265 264 263 260 259 259 259 258 260 261 260 263 265 265 264 264 264 262 261 260 262 263 265 263 260
271 272 272 271 272 276 277 276 277 274 273 273 272 271 270 269 268 267 264 263 262 260 258 260 261 260 261 260 261 263 264 264 265 266 267 265 264 263 263 265 266 265 263
271 273 273 274 275 277 280 279 277 275 276 276 272 269 267 268 269 267 263 261 261 262 260 262 263 262 263 261 262 262 262 262 264 266 267 268 267 265 265 267 266 266 263
268 271 272 274 274 275 279 280 277 275 276 273 271 269 269 270 270 270 267 266 264 263 263 264 266 264 261 260 261 262 263 263 264 265 268 270 269 268 268 268 266 265 264
271 271 273 274 274 275 277 280 279 276 272 272 271 270 270 272 272 272 268 270 268 265 264 264 265 264 262 261 261 265 265 265 265 266 267 270 272 270 270 269 266 264 264
272 273 272 274 274 274 276 278 278 277 274 274 273 271 271 270 270 271 273 273 268 265 263 264 266 264 264 265 264 265 266 266 266 267 269 271 274 272 270 267 267 267 266
272 272 271 271 273 274 276 276 276 276 274 275 274 271 270 269 269 270 273 274 270 265 263 265 265 266 268 268 269 269 269 269 269 271 272 273 275 274 271 268 268 268 266
272 270 270 270 272 273 274 273 273 273 273 273 272 272 272 271 269 271 273 275 274 268 265 265 266 268 271 271 271 271 269 268 270 272 272 273 274 274 272 269 268 269 268
272 269 270 271 271 273 273 272 272 271 271 271 272 273 273 272 270 271 273 273 273 270 267 267 267 269 272 272 271 271 272 271 270 271 272 272 273 273 272 272 271 270 269
273 272 270 271 271 270 271 271 271 271 269 270 271 272 273 274 273 272 273 272 271 269 267 269 271 273 272 271 270 271 273 274 273 271 271 272 272 272 273 273 271 269 268
274 272 269 271 273 271 270 269 269 271 271 271 271 272 275 276 275 274 272 271 270 267 267 269 271 273 275 276 274 274 275 275 276 276 275 276 275 274 274 272 271 269 268
274 275 272 271 272 272 271 270 270 272 272 273 273 275 276 276 274 272 271 269 269 268 268 270 272 274 275 275 276 276 276 276 277 277 277 277 276 275 273 272 271 270 270
274 276 275 272 271 271 270 271 272 272 272 274 276 276 275 274 274 272 269 268 269 269 270 272 274 275 274 274 276 277 278 277 278 277 278 278 277 277 275 273 271 271 272
Height
5864 5863 5863 5863 5863 5862 5862 5862 5862 5861 5860 5860 5860 5860 5859 5859 5859 5860 5861 5861 5862 5862 5863 5863 5864 5864 5864 5865 5865 5866 5867 5868 5868 5869 5869 5869 5870 5870 5870 5871 5871 5871 5872
5862 5861 5861 5861 5860 5860 5860 5859 5859 5859 5858 5858 5858 5857 5857 5857 5857 5858 5858 5859 5859 5860 5860 5861 5861 5861 5862 5862 5862 5863 5864 5865 5865 5866 5866 5866 5867 5867 5868 5868 5869 5869 5869
5859 5859 5858 5858 5858 5857 5857 5857 5857 5856 5856 5856 5855 5855 5854 5855 5855 5855 5855 5856 5856 5857 5857 5857 5858 5858 5859 5859 5859 5860 5861 5862 5862 5863 5863 5864 5864 5864 5865 5865 5866 5866 5867
5856 5856 5856 5855 5855 5855 5854 5854 5854 5854 5853 5853 5853 5852 5852 5852 5852 5853 5853 5853 5853 5853 5853 5854 5854 5854 5855 5855 5855 5856 5857 5858 5859 5859 5860 5860 5861 5861 5861 5862 5863 5863 5863
5853 5853 5853 5852 5852 5852 5851 5851 5851 5851 5850 5850 5849 5849 5849 5849 5849 5849 5849 5850 5850 5850 5850 5850 5850 5850 5851 5851 5852 5853 5853 5854 5855 5856 5856 5857 5857 5857 5858 5859 5859 5859 5860
5850 5850 5849 5849 5848 5848 5848 5847 5847 5847 5847 5847 5847 5846 5846 5846 5846 5846 5846 5846 5846 5846 5846 5846 5846 5847 5847 5847 5848 5849 5849 5850 5851 5852 5852 5853 5853 5853 5854 5855 5855 5855 5855
5847 5846 5845 5845 5844 5844 5844 5844 5844 5843 5843 5843 5843 5843 5843 5843 5843 5842 5842 5842 5842 5842 5842 5842 5842 5843 5843 5843 5844 5845 5845 5846 5847 5847 5848 5848 5848 5849 5850 5850 5850 5851 5851
5843 5842 5842 5841 5840 5840 5840 5840 5840 5840 5840 5840 5840 5839 5839 5839 5839 5838 5838 5838 5838 5838 5838 5838 5838 5838 5839 5839 5840 5840 5841 5841 5842 5842 5843 5843 5844 5844 5845 5845 5846 5846 5847
5839 5838 5838 5837 5836 5836 5836 5836 5836 5836 5836 5836 5835 5835 5835 5835 5834 5834 5834 5834 5834 5833 5833 5833 5833 5834 5834 5834 5835 5835 5836 5836 5837 5837 5838 5838 5839 5839 5840 5840 5841 5841 5842
5835 5834 5833 5833 5833 5832 5832 5832 5832 5832 5832 5831 5831 5831 5831 5830 5830 5829 5829 5829 5829 5829 5829 5829 5829 5829 5829 5829 5830 5830 5830 5831 5831 5832 5832 5833 5833 5833 5834 5834 5835 5836 5836
5831 5830 5830 5829 5828 5828 5828 5828 5827 5828 5827 5827 5827 5826 5826 5825 5825 5825 5825 5824 5824 5824 5824 5824 5824 5824 5824 5824 5824 5825 5825 5825 5826 5826 5827 5827 5828 5829 5829 5829 5829 5830 5830
5827 5827 5826 5825 5824 5824 5824 5823 5823 5823 5823 5822 5822 5821 5821 5820 5820 5819 5819 5819 5819 5819 5819 5819 5819 5819 5819 5819 5819 5820 5820 5820 5820 5821 5822 5822 5823 5823 5823 5823 5824 5824 5824
5823 5822 5822 5821 5820 5820 5819 5819 5818 5818 5818 5817 5817 5816 5815 5815 5814 5814 5814 5814 5813 5813 5813 5813 5813 5814 5814 5814 5815 5815 5815 5815 5815 5816 5816 5817 5817 5817 5817 5817 5818 5818 5818
5818 5818 5817 5816 5816 5815 5815 5814 5813 5813 5812 5812 5811 5810 5810 5809 5808 5808 5808 5808 5808 5808 5808 5808 5808 5808 5809 5809 5809 5809 5810 5810 5810 5810 5810 5811 5811 5811 5811 5811 5812 5812 5812
5813 5813 5812 5812 5811 5811 5810 5809 5809 5808 5808 5807 5806 5805 5804 5803 5803 5802 5802 5803 5803 5803 5803 5803 5803 5803 5803 5803 5804 5804 5804 5804 5804 5804 5804 5804 5804 5804 5805 5805 5805 5805 5805
5808 5808 5807 5807 5806 5806 5805 5804 5804 5803 5802 5801 5800 5800 5799 5798 5797 5797 5797 5797 5797 5797 5798 5798 5797 5797 5797 5798 5798 5798 5798 5798 5798 5798 5798 5797 5797 5797 5798 5798 5798 5798 5798
5803 5802 5802 5802 5801 5801 5800 5799 5798 5798 5797 5796 5795 5794 5794 5793 5792 5792 5791 5791 5791 5792 5792 5793 5792 5792 5792 5792 5792 5792 5792 5792 5792 5792 5791 5791 5790 5790 5790 5790 5790 5791 5791
5797 5797 5796 5796 5796 5795 5794 5793 5792 5792 5791 5790 5789 5789 5788 5788 5787 5787 5786 5786 5786 5786 5787 5787 5786 5786 5786 5786 5786 5786 5786 5786 5786 5785 5785 5784 5784 5783 5783 5783 5783 5783 5783
5791 5791 5790 5790 5790 5789 5788 5787 5786 5785 5784 5784 5784 5783 5783 5783 5782 5782 5781 5780 5780 5780 5780 5781 5781 5780 5780 5780 5780 5780 5780 5780 5779 5778 5778 5777 5776 5776 5775 5775 5775 5775 5775
5785 5785 5784 5784 5783 5783 5782 5781 5780 5779 5779 5778 5778 5778 5777 5777 5777 5776 5776 5775 5775 5775 5775 5775 5775 5775 5775 5774 5774 5773 5773 5773 5772 5771 5771 5770 5769 5769 5768 5767 5767 5767 5767
5779 5778 5778 5778 5777 5776 5775 5774 5774 5773 5772 5772 5772 5772 5771 5771 5771 5771 5770 5769 5769 5769 5769 5769 5769 5769 5768 5767 5767 5766 5766 5766 5765 5764 5763 5763 5762 5761 5760 5760 5759 5759 5759
5772 5772 5772 5771 5771 5770 5769 5768 5767 5767 5766 5766 5766 5766 5765 5765 5765 5764 5764 5763 5763 5763 5763 5763 5763 5762 5761 5760 5760 5759 5759 5759 5759 5758 5756 5756 5755 5754 5753 5752 5752 5751 5751
5766 5765 5765 5765 5764 5763 5763 5762 5761 5761 5761 5760 5760 5760 5759 5759 5758 5758 5757 5757 5756 5756 5756 5756 5756 5755 5755 5754 5753 5752 5751 5751 5751 5749 5748 5748 5747 5746 5745 5744 5744 5743 5743
5760 5759 5759 5758 5758 5757 5756 5756 5755 5755 5755 5754 5754 5754 5753 5752 5751 5751 5750 5750 5750 5749 5750 5750 5750 5749 5748 5747 5746 5745 5744 5744 5743 5742 5740 5740 5739 5738 5737 5736 5736 5735 5735
5753 5753 5752 5752 5751 5751 5750 5750 5749 5749 5748 5748 5748 5747 5746 5746 5745 5744 5744 5743 5743 5743 5743 5743 5743 5742 5741 5740 5739 5738 5737 5736 5736 5735 5733 5732 5731 5730 5729 5729 5727 5726 5726
5747 5746 5746 5745 5745 5744 5744 5743 5743 5742 5742 5741 5741 5740 5740 5739 5738 5737 5737 5737 5737 5737 5737 5736 5736 5735 5734 5733 5732 5731 5730 5728 5728 5727 5726 5724 5723 5721 5721 5720 5719 5718 5717